Вернуться в каталог

BREEZE-M R/B

АктивенHEO
NORAD 38099·ROCKET BODY·🇷🇺 Russia

Запущен Mar 25, 2012 с Baikonur Cosmodrome

Loading…

Ближайшие Пролёты (ближайшие 24 часа)

TLE

СвежийSource: Space-Track

Эпоха: Sep 14, 2026, 07:40 UTC

1 38099U 12011B   26257.31966925 -.00000374  00000-0  00000+0 0  9991
2 38099  25.2983 154.0610 7632203  27.1515 357.6150  1.11834225 58974

Отслеживайте BREEZE-M R/B в реальном времени с AllMySat

Download on the App Store